STARLINK-30933, 58410

Orbit data source: Space-Track

STARLINK-30933, 58410 is a payload satellite owned by SpaceX/Seattle (US) in LEO that was launched on Wed, 22 Nov 2023 UTC via an FALCON 9 launch vehicle from the Air Force Eastern Test Range (AFETR). Payload-class satellites include a variety of spacecraft equipped with specific instruments for various scientific and technological missions. These include communications satellites like Starlink; space stations such as the ISS; scientific satellites like the Hubble; Earth observation satellites from companies like Planet Labs, Umbra, and HawkEye 360; GPS; miniature CubeSats for education and research; and military/defense satellites.

Loading next visibility...
Identifier
58410, 2023-180J
Orbit
LEO
Country
Flag of USUS
Related business
Manufacturer
SpaceX/Seattle
Mission
Operational Commercial Communications
Bus & Motor
STARLINK V2M, Unknown motor
Mass
730 kg wet, ~700 kg dry
Launch date (UTC)
2023-11-22 (3 years ago)
Launch vehicle
FALCON 9
Launch site
Air Force Eastern Test Range (AFETR)
Object type
Payload
Rocket body
Debris
Shape & HBR
Box + 2 Pan, 17.7 m
Radar Cross Section
33.884 m², Large (>1 m²)

Expand to show TLE details & history
Last TLE update: 2 days ago

TLE from 2 days ago
0 STARLINK-30933
1 58410U 23180J   26171.37142191  .00000492  00000-0  27414-4 0  9994
2 58410  43.0009  46.8573 0001070 279.4838  80.5892 15.27576051145043
Epoch: 2026-06-20T08:54Z
TLE epoch observation values (Epoch: 2026-06-20T08:54:50.853Z)
Latitude
-0.00004°
Longitude
4.55836°
Altitude
482.716 km
Speed
7.626 km/s
True Right ascension
03h 07m 25s
True Declination
0° 00' 00"
Sunlit
Object was in daylight at epoch
Visualization orbit readout
Latitude
Unknown
Longitude
Unknown
Altitude
Unknown
Speed
Unknown
Apparent Right ascension
Unknown
Apparent Declination
Unknown
Sunlit
N/A
Visualization observer readout
Local Sidereal Time
21:56:55
Azimuth
Unknown
Elevation
Unknown
Doppler factor
Unknown
Orbital elements
Apogee altitude
485.74 km
Perigee altitude
484.272 km
Semi-major axis
6,863.143 km
Eccentricity
0.00011
Inclination
43.0009°
RAAN
46.8573°
Arg. of periapsis
279.4838°
True anomaly
80.6013°
Mean anomaly
80.5892°
Eccentric anomaly
80.59525°
Mean motion
3.81732 °/min
Orbital period
94.31 mins
BSTAR
0.000027414
Loading maneuver chart data...
Computing Atmospheric mass density...
Loading historical data...
Loading historical data...
Loading historical data...
Loading historical data...
Loading historical data...
Loading historical data...
Loading historical data...

Documentation

Showing up to 5 results
|